| time (UTC) | temp C | wind direction | speed KPH | gust KPH | rain 1hr cm | rain 24hr cm | rain mn cm | humidity % | barometer mb |
| 20260508043331 | 7 | 138 | 0.0 | 1.6 | 0.00 | 0.00 | 0.00 | 87 | 1015.0 |
| 20260508033335 | 6 | 139 | 0.0 | 0.0 | 0.00 | 0.00 | 0.00 | 87 | 1015.1 |
| 20260508030326 | 6 | 134 | 0.0 | 0.0 | 0.00 | 0.00 | 0.00 | 87 | 1015.1 |
| 20260508023325 | 6 | 0 | 1.6 | 6.4 | 0.00 | 0.00 | 0.00 | 87 | 1015.2 |
| 20260508020325 | 6 | 130 | 3.2 | 6.4 | 0.00 | 0.00 | 0.00 | 87 | 1015.0 |
| 20260508013329 | 6 | 130 | 3.2 | 9.7 | 0.00 | 0.00 | 0.00 | 86 | 1014.8 |
| 20260508010321 | 7 | 132 | 3.2 | 6.4 | 0.00 | 0.00 | 0.00 | 85 | 1014.9 |
| 20260508003319 | 7 | 141 | 3.2 | 6.4 | 0.00 | 0.00 | 0.00 | 85 | 1015.1 |
| 20260507233322 | 8 | 156 | 3.2 | 9.7 | 0.00 | 0.00 | 0.00 | 82 | 1015.3 |
| 20260507220310 | 10 | 167 | 6.4 | 14.5 | 0.00 | 0.00 | 0.00 | 78 | 1015.5 |
| 20260507210307 | 10 | 127 | 8.0 | 16.1 | 0.00 | 0.00 | 0.00 | 76 | 1015.2 |
| 20260507203307 | 10 | 133 | 4.8 | 12.9 | 0.00 | 0.00 | 0.00 | 75 | 1015.2 |
| 20260507200311 | 11 | 173 | 4.8 | 16.1 | 0.00 | 0.00 | 0.00 | 74 | 1014.7 |
| 20260507193305 | 12 | 128 | 9.7 | 17.7 | 0.00 | 0.00 | 0.00 | 71 | 1014.5 |
| 20260507190304 | 12 | 139 | 8.0 | 19.3 | 0.00 | 0.00 | 0.00 | 68 | 1014.4 |
| 20260507183312 | 13 | 147 | 9.7 | 19.3 | 0.00 | 0.00 | 0.00 | 66 | 1014.3 |
| 20260507180304 | 13 | 182 | 8.0 | 20.9 | 0.00 | 0.00 | 0.00 | 65 | 1013.9 |
| 20260507173305 | 15 | 153 | 6.4 | 14.5 | 0.00 | 0.00 | 0.00 | 60 | 1013.8 |
| 20260507170305 | 16 | 115 | 6.4 | 16.1 | 0.00 | 0.00 | 0.00 | 56 | 1013.8 |
| 20260507160305 | 14 | 138 | 3.2 | 6.4 | 0.00 | 0.00 | 0.00 | 63 | 1014.1 |
| 20260507150312 | 14 | 192 | 3.2 | 6.4 | 0.00 | 0.00 | 0.00 | 60 | 1014.4 |
| 20260507143303 | 14 | 0 | 3.2 | 6.4 | 0.00 | 0.00 | 0.00 | 60 | 1014.4 |
| 20260507140303 | 13 | 293 | 3.2 | 11.3 | 0.00 | 0.00 | 0.00 | 62 | 1014.4 |
| 20260507133307 | 14 | 258 | 4.8 | 11.3 | 0.00 | 0.00 | 0.00 | 62 | 1014.6 |
| 20260507130303 | 14 | 200 | 3.2 | 11.3 | 0.00 | 0.00 | 0.00 | 58 | 1014.6 |
| 20260507120307 | 15 | 74 | 8.0 | 20.9 | 0.00 | 0.00 | 0.00 | 57 | 1014.8 |
| 20260507110310 | 14 | 110 | 6.4 | 16.1 | 0.00 | 0.00 | 0.00 | 58 | 1015.0 |
| 20260507103304 | 13 | 64 | 6.4 | 12.9 | 0.00 | 0.00 | 0.00 | 61 | 1015.0 |
| 20260507100308 | 14 | 126 | 4.8 | 11.3 | 0.00 | 0.00 | 0.00 | 61 | 1015.2 |
| 20260507093304 | 13 | 196 | 6.4 | 16.1 | 0.00 | 0.00 | 0.00 | 64 | 1015.2 |
| 20260507090310 | 13 | 97 | 6.4 | 12.9 | 0.00 | 0.00 | 0.00 | 65 | 1015.0 |
| 20260507080312 | 11 | 172 | 6.4 | 16.1 | 0.00 | 0.00 | 0.00 | 73 | 1015.2 |
| 20260507073303 | 11 | 143 | 6.4 | 16.1 | 0.00 | 0.00 | 0.00 | 79 | 1015.1 |
| 20260507070303 | 9 | 84 | 0.0 | 9.7 | 0.00 | 0.00 | 0.00 | 86 | 1015.0 |
| 20260507063308 | 7 | 68 | 0.0 | 4.8 | 0.00 | 0.00 | 0.00 | 89 | 1014.9 |
| 20260507060303 | 6 | 39 | 0.0 | 3.2 | 0.00 | 0.00 | 0.00 | 89 | 1014.9 |
| 20260507053305 | 6 | 46 | 0.0 | 3.2 | 0.00 | 0.00 | 0.00 | 90 | 1014.7 |